• In Netherlands
  • List of Countries
  • For 7 days
  • Water Temperature
  • Satellite Maps
  • Weather Map
  • Weather Widgets
  • user-avatar
    Login

    Hourly Weather Naftalan

    Today, 23 September, Saturday

    Time Temperature Precipitation Wind Pressure Humidity
    00:00 +27°C° 0 mm 3 mps 761 mmHg 73%
    01:00 +27°C° 0 mm 2 mps 761 mmHg 74%
    02:00 +26°C° 0 mm 2 mps 762 mmHg 75%
    03:00 +26°C° 0 mm 2 mps 762 mmHg 76%
    04:00 +26°C° 0 mm 2 mps 762 mmHg 76%
    05:00 +26°C° 0 mm 2 mps 762 mmHg 75%
    06:00 +26°C° 0 mm 2 mps 762 mmHg 75%
    07:00 +27°C° 0 mm 2 mps 763 mmHg 65%
    08:00 +29°C° 0 mm 2 mps 763 mmHg 55%
    09:00 +31°C° 0 mm 3 mps 763 mmHg 45%
    10:00 +33°C° 0 mm 4 mps 763 mmHg 39%
    11:00 +34°C° 0 mm 4 mps 763 mmHg 33%
    12:00 +36°C° 0 mm 5 mps 763 mmHg 27%
    13:00 +35°C° 0 mm 6 mps 763 mmHg 27%
    14:00 +35°C° 0 mm 6 mps 763 mmHg 27%
    15:00 +35°C° 0 mm 7 mps 763 mmHg 27%
    16:00 +33°C° 0 mm 6 mps 763 mmHg 35%
    17:00 +30°C° 0 mm 6 mps 763 mmHg 43%
    18:00 +28°C° 0 mm 6 mps 763 mmHg 51%
    19:00 +28°C° 0 mm 6 mps 763 mmHg 54%
    20:00 +27°C° 0 mm 5 mps 764 mmHg 58%
    21:00 +26°C° 0 mm 5 mps 764 mmHg 61%
    22:00 +26°C° 0 mm 6 mps 764 mmHg 63%
    23:00 +26°C° 0 mm 6 mps 764 mmHg 64%

    Tomorrow, 24 September, Sunday

    Time Temperature Precipitation Wind Pressure Humidity
    00:00 +24°C° 0 mm 7 mps 764 mmHg 65%
    01:00 +24°C° 0 mm 7 mps 764 mmHg 67%
    02:00 +23°C° 0 mm 7 mps 764 mmHg 70%
    03:00 +23°C° 0 mm 7 mps 764 mmHg 72%
    04:00 +23°C° 0 mm 7 mps 764 mmHg 73%
    05:00 +22°C° 0 mm 6 mps 765 mmHg 75%
    06:00 +22°C° 0 mm 6 mps 765 mmHg 77%
    07:00 +24°C° 0 mm 6 mps 765 mmHg 68%
    08:00 +27°C° 0 mm 6 mps 766 mmHg 58%
    09:00 +28°C° 0 mm 6 mps 766 mmHg 49%
    10:00 +30°C° 0 mm 6 mps 766 mmHg 44%
    11:00 +32°C° 0 mm 6 mps 766 mmHg 39%
    12:00 +33°C° 0 mm 6 mps 765 mmHg 33%
    13:00 +33°C° 0 mm 6 mps 765 mmHg 35%
    14:00 +33°C° 0 mm 7 mps 765 mmHg 36%
    15:00 +33°C° 0 mm 7 mps 765 mmHg 37%
    16:00 +30°C° 0 mm 7 mps 765 mmHg 44%
    17:00 +28°C° 0 mm 7 mps 765 mmHg 51%
    18:00 +27°C° 0 mm 6 mps 765 mmHg 57%
    19:00 +26°C° 0 mm 6 mps 765 mmHg 60%
    20:00 +24°C° 0 mm 6 mps 766 mmHg 64%
    21:00 +25°C° 0 mm 5 mps 766 mmHg 67%
    22:00 +23°C° 0 mm 5 mps 766 mmHg 69%
    23:00 +23°C° 0 mm 5 mps 766 mmHg 72%

    Day after tomorrow, 25 September, Monday

    Time Temperature Precipitation Wind Pressure Humidity
    00:00 +22°C° 0 mm 4 mps 765 mmHg 74%
    01:00 +22°C° 0 mm 4 mps 765 mmHg 76%
    02:00 +22°C° 0 mm 4 mps 765 mmHg 77%
    03:00 +22°C° 0 mm 4 mps 765 mmHg 78%
    04:00 +22°C° 0 mm 4 mps 766 mmHg 78%
    05:00 +21°C° 0 mm 4 mps 766 mmHg 79%
    06:00 +21°C° 0 mm 4 mps 766 mmHg 79%
    07:00 +23°C° 0 mm 4 mps 766 mmHg 68%
    08:00 +26°C° 0 mm 5 mps 766 mmHg 58%
    09:00 +28°C° 0 mm 5 mps 766 mmHg 47%
    10:00 +29°C° 0 mm 5 mps 766 mmHg 41%
    11:00 +30°C° 0 mm 5 mps 766 mmHg 36%
    12:00 +32°C° 0 mm 6 mps 766 mmHg 30%
    13:00 +32°C° 0 mm 6 mps 766 mmHg 31%
    14:00 +32°C° 0 mm 7 mps 765 mmHg 33%
    15:00 +32°C° 0 mm 8 mps 765 mmHg 34%
    16:00 +30°C° 0 mm 7 mps 765 mmHg 41%
    17:00 +28°C° 0 mm 7 mps 766 mmHg 48%
    18:00 +26°C° 0 mm 7 mps 766 mmHg 56%
    19:00 +26°C° 0 mm 7 mps 766 mmHg 58%
    20:00 +24°C° 0 mm 7 mps 767 mmHg 60%
    21:00 +24°C° 0 mm 7 mps 767 mmHg 63%
    22:00 +24°C° 0 mm 7 mps 767 mmHg 62%
    23:00 +23°C° 0 mm 7 mps 767 mmHg 61%

    26 September, Tuesday

    Time Temperature Precipitation Wind Pressure Humidity
    00:00 +23°C° 0 mm 7 mps 767 mmHg 60%
    01:00 +23°C° 0 mm 8 mps 766 mmHg 58%
    02:00 +22°C° 0 mm 8 mps 766 mmHg 57%
    03:00 +22°C° 0 mm 8 mps 766 mmHg 56%
    04:00 +22°C° 0 mm 7 mps 767 mmHg 58%
    05:00 +21°C° 0 mm 7 mps 767 mmHg 60%
    06:00 +21°C° 0 mm 7 mps 767 mmHg 62%
    07:00 +22°C° 0 mm 7 mps 767 mmHg 57%
    08:00 +24°C° 0 mm 8 mps 767 mmHg 52%
    09:00 +26°C° 0 mm 8 mps 767 mmHg 48%
    10:00 +27°C° 0 mm 8 mps 767 mmHg 46%
    11:00 +27°C° 0 mm 8 mps 767 mmHg 45%
    12:00 +28°C° 0 mm 8 mps 767 mmHg 43%
    13:00 +28°C° 0 mm 8 mps 767 mmHg 45%
    14:00 +27°C° 0 mm 8 mps 767 mmHg 46%
    15:00 +27°C° 0 mm 8 mps 766 mmHg 47%
    16:00 +26°C° 0 mm 8 mps 767 mmHg 51%
    17:00 +24°C° 0 mm 7 mps 767 mmHg 55%
    18:00 +23°C° 0 mm 7 mps 767 mmHg 59%
    19:00 +23°C° 0.1 mm 7 mps 768 mmHg 61%
    20:00 +23°C° 0.1 mm 7 mps 768 mmHg 63%
    21:00 +22°C° 0.1 mm 7 mps 768 mmHg 65%
    22:00 +22°C° 0.1 mm 7 mps 768 mmHg 65%
    23:00 +22°C° 0.1 mm 7 mps 768 mmHg 65%

    27 September, Wednesday

    Time Temperature Precipitation Wind Pressure Humidity
    00:00 +22°C° 0.1 mm 7 mps 768 mmHg 66%
    01:00 +22°C° 0.1 mm 7 mps 767 mmHg 66%
    02:00 +22°C° 0.1 mm 6 mps 767 mmHg 66%
    03:00 +22°C° 0.1 mm 6 mps 767 mmHg 65%
    04:00 +22°C° 0 mm 6 mps 767 mmHg 65%
    05:00 +22°C° 0 mm 6 mps 767 mmHg 64%
    06:00 +22°C° 0 mm 5 mps 767 mmHg 64%
    07:00 +22°C° 0 mm 5 mps 767 mmHg 62%
    08:00 +22°C° 0 mm 5 mps 767 mmHg 61%
    09:00 +23°C° 0 mm 5 mps 768 mmHg 59%
    10:00 +25°C° 0 mm 5 mps 767 mmHg 56%
    11:00 +25°C° 0 mm 5 mps 767 mmHg 53%
    12:00 +26°C° 0 mm 5 mps 767 mmHg 49%
    13:00 +26°C° 0 mm 5 mps 766 mmHg 50%
    14:00 +26°C° 0 mm 5 mps 766 mmHg 51%
    15:00 +26°C° 0 mm 5 mps 766 mmHg 52%
    16:00 +25°C° 0 mm 5 mps 766 mmHg 56%
    17:00 +24°C° 0 mm 6 mps 766 mmHg 59%
    18:00 +23°C° 0 mm 6 mps 766 mmHg 63%
    19:00 +23°C° 0.1 mm 6 mps 767 mmHg 64%
    20:00 +23°C° 0.1 mm 6 mps 767 mmHg 66%
    21:00 +23°C° 0.1 mm 7 mps 767 mmHg 68%
    22:00 +22°C° 0.2 mm 6 mps 767 mmHg 68%
    23:00 +22°C° 0.2 mm 6 mps 766 mmHg 69%

    28 September, Thursday

    Time Temperature Precipitation Wind Pressure Humidity
    00:00 +22°C° 0.2 mm 6 mps 766 mmHg 70%
    01:00 +21°C° 0.2 mm 6 mps 766 mmHg 69%
    02:00 +21°C° 0.2 mm 6 mps 766 mmHg 68%
    03:00 +21°C° 0.2 mm 6 mps 766 mmHg 67%
    04:00 +21°C° 0.1 mm 6 mps 766 mmHg 67%
    05:00 +21°C° 0.1 mm 6 mps 766 mmHg 66%
    06:00 +21°C° 0.1 mm 5 mps 766 mmHg 66%
    07:00 +21°C° 0 mm 5 mps 766 mmHg 65%
    08:00 +21°C° 0 mm 5 mps 766 mmHg 64%
    09:00 +21°C° 0 mm 5 mps 767 mmHg 64%
    10:00 +21°C° 0 mm 6 mps 767 mmHg 66%
    11:00 +21°C° 0 mm 6 mps 767 mmHg 68%
    12:00 +20°C° 0 mm 7 mps 767 mmHg 70%
    13:00 +20°C° 0.1 mm 8 mps 767 mmHg 68%
    14:00 +19°C° 0.1 mm 9 mps 767 mmHg 66%
    15:00 +19°C° 0.1 mm 10 mps 768 mmHg 65%
    16:00 +19°C° 0.1 mm 10 mps 768 mmHg 66%
    17:00 +19°C° 0.1 mm 11 mps 769 mmHg 67%
    18:00 +18°C° 0.1 mm 11 mps 769 mmHg 68%
    19:00 +18°C° 0.6 mm 11 mps 770 mmHg 70%
    20:00 +18°C° 0.6 mm 11 mps 770 mmHg 72%
    21:00 +18°C° 0.6 mm 10 mps 770 mmHg 74%
    22:00 +18°C° 0.5 mm 10 mps 770 mmHg 74%
    23:00 +17°C° 0.5 mm 10 mps 770 mmHg 74%
    Show more